Overview Statistics Trail Chart Weather Telemetry Raw packets
 

This is the latest recevied weather packets stored in our database for station/object DF7ER-12. If no packets are shown the sender has not sent any weather packets the latest 10 day(s).

<< 57 58 59 60 61 62 63 >>
Time Temp. Humidity Pressure Rain* Wind** Luminosity Snow
1788279413 22.22° C 91% 1007.4 hPa - - - -
1788279113 22.22° C 88% 1007.4 hPa - - - -
1788278827 22.78° C 88% 1007.4 hPa - - - -
1788278513 22.78° C 88% 1007.4 hPa - - - -
1788278213 22.78° C 90% 1007.4 hPa - - - -
1788277913 22.78° C 88% 1007.4 hPa - - - -
1788277613 22.78° C 88% 1007.4 hPa - - - -
1788277313 22.78° C 88% 1007.4 hPa - - - -
1788277013 22.78° C 86% 1007.4 hPa - - - -
1788276713 22.22° C 87% 1007.3 hPa - - - -
1788276413 22.78° C 86% 1007.4 hPa - - - -
1788276113 23.33° C 82% 1007.4 hPa - - - -
1788275782 22.78° C 81% 1007.4 hPa - - - -
1788275482 23.89° C 77% 1007.1 hPa - - - -
1788275182 23.89° C 75% 1007.1 hPa - - - -
1788274882 23.89° C 76% 1007.1 hPa - - - -
1788274582 23.89° C 75% 1007.1 hPa - - - -
1788274282 23.89° C 77% 1007.1 hPa - - - -
1788273982 23.89° C 76% 1007.1 hPa - - - -
1788273682 23.89° C 76% 1007.1 hPa - - - -
1788273382 23.89° C 76% 1007.1 hPa - - - -
1788273082 23.89° C 76% 1007 hPa - - - -
1788272782 23.89° C 75% 1007.1 hPa - - - -
1788272482 24.44° C 76% 1007.1 hPa - - - -
1788272182 24.44° C 75% 1007 hPa - - - -

* Rain since midnight (hover to see other rain measurements)
** Current wind speed in m/s (hover to see current wind gust speed)